Meath Environmental Platform

Observations for Trim Market St

Time AQI Temp °C Hum % Pres Pa CO μg/m³ H₂S μg/m³ NO μg/m³ NO₂ μg/m³ O₃ μg/m³ SO₂ μg/m³ PM1 μg/m³ PM2.5 μg/m³ PM10 μg/m³
Friday 21 August 2026
14:21 2 29.9 29 65,916 0 0 1.02 23.42 104.75 0 0 2.8 3.08
14:20 2 29.7 30 65,918 0 0 1.14 18.54 80.9 0 0 2.78 3.06
14:19 2 29.5 30 65,896 0 0 1.2 20.61 86.19 0 0 2.77 3.04
14:18 2 29.3 30 65,892 0 0 1.21 26.29 92.54 0 0 3.31 3.64
14:17 2 29.1 30 65,857 0 0 1.21 40.16 104.99 0 0 4.4 4.84
14:16 2 29 30 65,841 0 0 1.2 28.86 89.43 0 0.71 4.96 5.45
14:15 2 28.9 30 65,851 0 3.54 1.15 30.24 109.73 0 0 2.78 3.06
14:14 2 28.9 30 65,862 0 6.16 1.09 32.76 125.97 0 0 3.33 3.66
14:12 2 29.2 30 65,882 0 0 1.1 17.2 78.34 0 0 2.77 3.05
14:11 2 29.3 30 65,882 0 0 1.17 23.88 88.02 0 0 2.77 3.05
14:09 2 29.4 30 65,939 0 0 1.21 22.22 80.8 0 0 2.78 3.05
14:08 2 29.4 30 65,918 0 4.04 1.21 37.03 142.29 0 2.14 4.94 5.43
14:07 2 29.3 30 65,890 0 0.59 1.2 32.53 97.5 0 3.56 6.03 6.63
14:05 2 29 30 65,847 0 6.45 1.21 28.21 208.37 0 0 3.32 3.65
14:04 2 28.9 30 65,831 0 0 1.22 14.53 82.08 0 0 2.79 3.07
14:02 2 28.9 29 65,851 0 3.16 1.21 29.45 105.37 0 0 2.81 3.09
14:01 2 29.1 28 65,868 0 5.69 1.13 35.06 107.55 0 0 3.39 3.73
14:00 2 29.3 28 65,862 0 0.24 0.94 20.46 126.99 0 0.71 3.96 4.36
13:54 2 31 27 66,048 0 0 1.14 3.79 65.19 0 0 3.44 3.79
13:53 2 31.2 27 66,113 0 0 1.16 16.02 80.11 0 0 3.44 3.78